"Pseudo-MPEC" for CC804Y2

Created 2024 Nov 2 13:31:12 UT using Find_Orb

Click here for an explanation of pseudo-MPECs

 
 Astrometry: 
     CC804Y2*1C2024 10 31.29011402 29 00.852+03 25 53.65   ~AV7l 21.49GVNEOCPG96
     CC804Y2 1C2024 10 31.29530602 29 00.089+03 26 46.50   ~AV7l 20.85GVNEOCPG96
     CC804Y2 1C2024 10 31.30050202 28 59.369+03 27 38.48   ~AV7l 20.64GVNEOCPG96
     CC804Y2 1C2024 10 31.30569802 28 58.627+03 28 31.58   ~AV7l 21.11GVNEOCPG96
     CC804Y2 KC2024 10 31.42060102 28 42.300+03 47 56.60   ~AVAV 21.01GVNEOCPI52
     CC804Y2 KC2024 10 31.42304802 28 41.990+03 48 21.50   ~AVAV 20.57GVNEOCPI52
     CC804Y2 KC2024 10 31.42549102 28 41.620+03 48 45.90   ~AVAV 21.01GVNEOCPI52
     CC804Y2 KC2024 10 31.42793402 28 41.310+03 49 10.90   ~AVAV 20.46GVNEOCPI52
     CC804Y2 hC2024 10 31.83573302 28 03.60 +04 59 05.4    ~AVKl 20.6 GVNEOCPL01
     CC804Y2 hC2024 10 31.83759302 28 03.33 +04 59 24.1    ~AVKl 20.7 GVNEOCPL01
     CC804Y2 hC2024 10 31.84008502 28 02.99 +04 59 50.0    ~AVKl 20.5 GVNEOCPL01
     CC804Y2 hC2024 10 31.84460802 28 02.39 +05 00 37.8    ~AVKl 20.8 GVNEOCPL01
     CC804Y2 KC2024 10 31.90238502 27 54.48 +05 10 43.2    ~AVN2 20.9 GVNEOCPK51
     CC804Y2 KC2024 10 31.91167002 27 53.17 +05 12 21.1    ~AVN2 20.9 GVNEOCPK51
     CC804Y2 KC2024 10 31.92095402 27 51.83 +05 13 58.7    ~AVN2 20.8 GVNEOCPK51
     CC804Y2 KB2024 11 01.03690 02 27 35.40 +05 34 21.9    ~B18l       VNEOCP204
     CC804Y2 KB2024 11 01.05088 02 27 33.44 +05 36 49.3    ~B18l 20.8 GVNEOCP204
     CC804Y2 KC2024 11 01.18060602 27 22.82 +05 59 59.5    ~B15H       VNEOCPH21
     CC804Y2 KC2024 11 01.19039402 27 21.39 +06 01 44.5    ~B15H 21.1 GVNEOCPH21
     CC804Y2 KC2024 11 01.19617102 27 20.53 +06 02 46.2    ~B15H 21.0 GVNEOCPH21
     CC804Y2 KB2024 11 01.84169502 26 07.28 +07 59 48.7    ~B1LHx      VNEOCPI93
     CC804Y2 KC2024 11 01.84516302 26 06.15 +08 00 24.2    ~B1L2       VNEOCP587
     CC804Y2 KC2024 11 01.84611002 26 06.01 +08 00 34.4    ~B1L2 20.8 GVNEOCP587
     CC804Y2 KC2024 11 01.84705802 26 05.84 +08 00 45.3    ~B1L2       VNEOCP587
     CC804Y2 KB2024 11 01.85076402 26 05.99 +08 01 30.3    ~B1LHx20.4 GVNEOCPI93
     CC804Y2 KB2024 11 01.85999502 26 04.71 +08 03 13.0    ~B1LHx21.3 GVNEOCPI93

Station data:
(204) Schiaparelli Observatory  (N45.868292 E8.769720)  Italy.  Observer L.
   Buzzi. 0.60-m f/4.64 Newtonian + CCD0.84-m f/3.5 reflector + CCD.
(587) Sormano  (N45.882946 E9.229180)  Italy.  Observers E. Colzani, E. Valli.
    Measurer P. Sicoli. 0.5-m f/6.8 reflector + CCD.
(G96) Mt. Lemmon Survey  (N32.442729 W110.788720)  US/Arizona.  Observer E.
   J. Christensen. 1.5-m reflector + 10K CCD.
(H21) Astronomical Research Observatory, Westfield  (N39.483054 W87.968270)
   US/Illinois.  Observer R. Holmes. Measurers S. Foglia, L. Buzzi, T.
   Linder, R. Holmes. 0.76-m f/3.0 astrograph + CCD0.81-m f/4.0 astrograph +
   CCD0.61-m f/4.5 astrograph + CCD0.40-m f/5.32 astrograph + CCD.
(I52) Steward Observatory, Mt. Lemmon Station  (N32.442570 W110.788920)
   US/Arizona.  Observers T. A. Pruyne, B. M. Africano, E. J. Christensen, G.
   A. Farneth, D. C. Fuls, A. R. Gibbs, A. D. Grauer, H. Gröller, J. A.
   Johnson, R. A. Kowalski, S. M. Larson, G. J. Leonard, D. Rankin, R. L.
   Seaman, F. C. Shelly, K. W. Wierzchoś. 1.0-m prime focus + CCD.
(I93) St Pardon de Conques  (N44.558670 W0.202960)  France.  Observers F.
   Losse, W. D'Anna. Measurer F. Losse. 0.40-m f/3.7 reflector + CCD.
(K51) Osservatorio del Celado, Castello Tesino  (N46.029480 E11.657890)
   Italy.  Observers G. Favero, R. Furgoni. Measurer R. Furgoni. 0.80-m f/4
   reflector + CCD.
(L01) Višnjan Observatory, Tičan  (N45.290897 E13.749300)  Croatia.
   Observers K. Korlević, D. Pujagic, V. Dobos. Measurers D. Pujagic, K.
   Korlević. 1.0-m f/2.9 reflector + CCD.

Orbital elements:  CC804Y2
   Perihelion 2024 Nov 27.93150 +/- 0.0351 TT = 22:21:21 (JD 2460642.43150)
Epoch 2024 Nov  1.0 TT = JDT 2460615.5   Earth MOID: 0.0742      AutoNEOCP
M 345.68693167 +/- 0.055            (J2000 ecliptic)
n   0.53146201 +/- 0.00166          Peri.   25.07968 +/- 0.037
a   1.50945867 +/- 0.00315          Node    41.19832 +/- 0.0008
e   0.3067435 +/- 0.00132           Incl.   14.22080 +/- 0.043
P   1.855/677.364d         H 25.73  G  0.15   U  8.4
q 1.04644191 +/- 0.000217    Q 1.97247544 +/- 0.0061
23 of 26 observations 2024 Oct. 31-Nov. 1 (37.4 hr); mean residual 0".25
Residuals in arcseconds: 
241031 G96  .19-  .03-    241031 L01  .13-  .00     241101 H21  .18-  .11+    
241031 G96  .37-  .32+    241031 L01  .16-  .24-    241101 H21  .21-  .01-    
241031 G96  .11+  .25-    241031 L01  .08+  .12+    241101 I93( .06-  2.6+)   
241031 G96  .27+  .28+    241031 K51  .34+  .20-    241101 587  .21+  .12+    
241031 I52  .08-  .02+    241031 K51  .47+  .04+    241101 587  .16+  .23-    
241031 I52  .26+  .04+    241031 K51  .24+  .04-    241101 587  .33-  .11+    
241031 I52  .33-  .40-    241101 204  .07-  .14+    241101 I93( .24-  3.1+)   
241031 I52  .03-  .24-    241101 204  .18+  .23-    241101 I93( .27+  2.9+)   
241031 L01  .14+  .80+    241101 H21  .45-  .17-    

Ephemerides (geocentric):
Date (UTC) HH   RA             Dec           delta  r     elong  mag " sig PA
---- --------  ------------   ------------  ------ ------ -----  --- --------
2024 11 02 14  02 24 31.591   +10 20 44.06  .08050 1.0724 175.1 20.8 .299 116
2024 11 02 15  02 24 26.307   +10 28 45.10  .08042 1.0723 175.2 20.8 .301 114
2024 11 02 16  02 24 21.010   +10 36 47.15  .08033 1.0722 175.3 20.8 .303 112
2024 11 02 17  02 24 15.697   +10 44 50.20  .08025 1.0721 175.4 20.8 .305 111
2024 11 02 18  02 24 10.370   +10 52 54.24  .08017 1.0721 175.5 20.8 .307 109
2024 11 02 19  02 24 05.027   +11 00 59.27  .08009 1.0720 175.6 20.8 .309 107
2024 11 02 20  02 23 59.670   +11 09 05.28  .08001 1.0719 175.6 20.8 .312 105
2024 11 02 21  02 23 54.298   +11 17 12.28  .07993 1.0718 175.7 20.8 .314 103
2024 11 02 22  02 23 48.911   +11 25 20.26  .07985 1.0717 175.8 20.7 .317 102
2024 11 02 23  02 23 43.510   +11 33 29.21  .07978 1.0716 175.9 20.7 .320 100
2024 11 03 00  02 23 38.093   +11 41 39.12  .07970 1.0716 175.9 20.7 .324  98
2024 11 03 01  02 23 32.661   +11 49 50.01  .07962 1.0715 176.0 20.7 .327  96
2024 11 03 02  02 23 27.214   +11 58 01.85  .07954 1.0714 176.1 20.7 .331  94
2024 11 03 03  02 23 21.753   +12 06 14.65  .07947 1.0713 176.1 20.7 .335  92
2024 11 03 04  02 23 16.276   +12 14 28.40  .07939 1.0712 176.2 20.7 .340  90
2024 11 03 05  02 23 10.784   +12 22 43.09  .07932 1.0712 176.2 20.7 .345  88
2024 11 03 06  02 23 05.276   +12 30 58.72  .07924 1.0711 176.3 20.7 .350  86
2024 11 03 07  02 22 59.754   +12 39 15.30  .07917 1.0710 176.3 20.7 .355  85
2024 11 03 08  02 22 54.217   +12 47 32.80  .07910 1.0709 176.3 20.7 .361  83
2024 11 03 09  02 22 48.664   +12 55 51.23  .07902 1.0708 176.4 20.7 .367  81
2024 11 03 10  02 22 43.096   +13 04 10.58  .07895 1.0708 176.4 20.7 .374  79
2024 11 03 11  02 22 37.512   +13 12 30.84  .07888 1.0707 176.4 20.7 .380  77
2024 11 03 12  02 22 31.914   +13 20 52.02  .07881 1.0706 176.4 20.7 .388  75
2024 11 03 13  02 22 26.299   +13 29 14.10  .07874 1.0705 176.4 20.7 .396  73
2024 11 03 14  02 22 20.670   +13 37 37.08  .07867 1.0704 176.4 20.7 .404  72
2024 11 03 15  02 22 15.025   +13 46 00.95  .07860 1.0703 176.4 20.7 .412  70
2024 11 03 16  02 22 09.365   +13 54 25.72  .07853 1.0703 176.4 20.7 .421  68
2024 11 03 17  02 22 03.689   +14 02 51.36  .07846 1.0702 176.4 20.7 .431  67
2024 11 03 18  02 21 57.997   +14 11 17.89  .07839 1.0701 176.4 20.7 .441  65
2024 11 03 19  02 21 52.290   +14 19 45.29  .07833 1.0700 176.4 20.7 .451  63
2024 11 03 20  02 21 46.568   +14 28 13.55  .07826 1.0699 176.4 20.7 .462  62
2024 11 03 21  02 21 40.829   +14 36 42.68  .07819 1.0699 176.3 20.7 .473  60
2024 11 03 22  02 21 35.076   +14 45 12.65  .07813 1.0698 176.3 20.7 .485  59
2024 11 03 23  02 21 29.306   +14 53 43.48  .07806 1.0697 176.2 20.7 .497  57
2024 11 04 00  02 21 23.521   +15 02 15.15  .07800 1.0696 176.2 20.7 .509  56
2024 11 04 01  02 21 17.720   +15 10 47.66  .07793 1.0696 176.1 20.7 .523  54
2024 11 04 02  02 21 11.903   +15 19 20.99  .07787 1.0695 176.1 20.7 .536  53
2024 11 04 03  02 21 06.070   +15 27 55.15  .07781 1.0694 176.0 20.7 .550  51
2024 11 04 04  02 21 00.222   +15 36 30.13  .07775 1.0693 175.9 20.7 .564  50
2024 11 04 05  02 20 54.357   +15 45 05.92  .07768 1.0692 175.9 20.7 .579  49
2024 11 04 06  02 20 48.477   +15 53 42.52  .07762 1.0692 175.8 20.7 .595  48
2024 11 04 07  02 20 42.580   +16 02 19.91  .07756 1.0691 175.7 20.7 .610  46
2024 11 04 08  02 20 36.668   +16 10 58.09  .07750 1.0690 175.6 20.7 .627  45
2024 11 04 09  02 20 30.740   +16 19 37.06  .07744 1.0689 175.6 20.7 .643  44
2024 11 04 10  02 20 24.795   +16 28 16.81  .07738 1.0688 175.5 20.7 .661  43
2024 11 04 11  02 20 18.835   +16 36 57.33  .07733 1.0688 175.4 20.7 .678  42
2024 11 04 12  02 20 12.858   +16 45 38.61  .07727 1.0687 175.3 20.7 .696  41
2024 11 04 13  02 20 06.865   +16 54 20.66  .07721 1.0686 175.2 20.7 .715  40